[[{"header":{"parameterUnit":"m.s-1","parameterCategory":1,"la1":30.2991,"la2":30.254,"lo1":-89.0895,"lo2":-89.0444,"dy":0.0017,"dx":0.0017,"nx":28,"ny":28,"refTime":"2023-08-08T21:00:00:Z","depth":0,"parameterNumber":2,"parameterNumberName":"U-component_of_WINDS"},"data":[0,0,0,0,0,0,0,0,0,0,0,0,0,0,0,0,0,0,0,0,0,0,0,0,0,0,0,0,0,0,0,0,0,0,0,0,0,0,0,0,0,0,0,0,0,0,0,0,0,0,0,0,0,0,0,0,0,0,5.3167,5.3168,0,5.3231,5.3231,5.3232,5.3167,5.3165,5.3162,5.316,5.3223,5.3227,5.3231,0,0,0,0,0,0,0,0,0,0,0,0,0,5.2986,5.299,5.3167,5.3168,5.3169,5.3231,5.3231,5.3232,5.3168,5.3165,5.3162,5.3159,5.3222,5.3227,5.3231,0,0,0,0,0,0,0,0,0,0,0,0,0,5.3059,5.2991,5.3167,5.3144,5.3143,5.323,5.3231,5.3233,5.3168,5.3165,5.3161,5.3157,5.322,5.3226,5.3232,5.3345,0,0,5.3251,5.3253,0,0,0,0,0,0,0,0,5.3055,5.3066,5.3147,5.3146,5.3145,5.3187,5.3191,5.327,5.3169,5.3159,5.316,5.3155,5.3214,5.322,5.3241,5.3348,5.3351,5.3251,5.3255,5.3257,5.3259,0,0,0,0,0,0,0,5.305,5.3062,5.3192,5.3148,5.3147,5.3129,5.3135,5.3205,5.3207,5.3159,5.3155,5.3163,5.3213,5.3235,5.3242,5.3352,5.3251,5.3256,5.326,5.3262,5.3549,5.3553,0,0,0,0,0,0,5.3048,5.3059,5.319,5.3194,5.309,5.3136,5.3142,5.3177,5.3206,5.3207,5.3166,5.316,5.3226,5.3235,5.3244,5.3373,5.3257,5.3263,5.3266,5.3545,5.355,5.3554,0,0,0,0,0,0,5.3044,5.306,5.3188,5.3125,5.314,5.3143,5.3182,5.3181,5.3203,5.3211,5.3211,5.3189,5.3224,5.3235,5.3319,5.3375,5.3266,5.3271,5.354,5.3546,5.3552,5.3636,0,0,0,0,0,0,5.3039,5.3059,5.3104,5.3127,5.3144,5.3264,5.3186,5.3185,5.3213,5.3206,5.3232,5.3233,5.3222,5.331,5.3325,5.3381,5.3276,5.3535,5.3543,5.355,5.3628,5.3644,5.3658,0,0,0,0,0,5.3033,5.3126,5.3106,5.3122,5.3199,5.3267,5.3277,5.3262,5.3218,5.3261,5.3266,5.3232,5.3367,5.332,5.3336,5.3394,5.3531,5.3541,5.3549,5.3622,5.3641,5.3658,0,0,0,0,0,0,5.311,5.3129,5.3107,5.321,5.3238,5.3256,5.331,5.3284,5.3324,5.3315,5.3295,5.3302,5.3389,5.3401,5.3348,5.3502,5.3442,5.3454,5.3491,5.351,5.3524,5.3518,5.3281,0,0,0,0,0,5.3139,5.3193,5.3206,5.3296,5.3311,5.3309,5.3338,5.3324,5.3351,5.3362,5.3373,5.34,5.3448,5.348,5.3525,5.363,5.3633,5.3678,5.3693,5.3705,5.3715,5.3767,5.3785,5.3583,5.3583,5.3583,0,0,5.3199,5.3216,5.3252,5.3312,5.3331,5.3386,5.3319,5.3381,5.342,5.3372,5.345,5.3459,5.3488,5.3582,5.3624,5.3594,5.3772,5.3717,5.3726,5.373,5.3778,5.3797,5.3814,5.3589,5.3588,5.3587,0,0,5.3335,5.3356,5.343,5.345,5.348,5.3477,5.3495,5.3517,5.3521,5.36,5.3563,5.3609,5.3694,5.3714,5.3735,5.3876,5.3844,5.3891,5.3967,5.4018,5.4033,5.4047,5.4093,5.411,5.3902,5.3902,5.3902,0,5.3406,5.3488,5.3472,5.3535,5.356,5.3518,5.3591,5.3612,5.3655,5.3673,5.3639,5.374,5.3757,5.3852,5.3886,5.3907,5.3923,5.3887,5.4033,5.4046,5.4059,5.4102,5.412,5.3907,5.3907,5.3906,5.3906,0,5.3571,5.3628,5.3684,5.3725,5.3758,5.3826,5.3817,5.3852,5.3835,5.3835,5.3913,5.3932,5.3977,5.3999,5.3984,5.4092,5.4071,5.4036,5.3974,5.4084,5.4124,5.414,5.3915,5.3913,5.3911,5.391,0,0,5.3758,5.3786,5.3807,5.3823,5.3851,5.3894,5.3959,5.4003,5.4031,5.4062,5.4113,5.4184,5.4149,5.4174,5.416,5.4205,5.4309,5.4163,5.4163,5.4185,5.4423,5.4446,5.4466,5.4289,5.4293,5.4295,5.4419,0,5.3891,5.4003,5.3988,5.4095,5.4145,5.4104,5.416,5.4182,5.4184,5.4225,5.4226,5.4275,5.4229,5.4242,5.4285,5.4287,5.4355,5.4279,5.4333,5.4335,5.4324,5.4488,5.4514,5.463,5.4435,5.4437,5.4439,0,5.4062,5.4097,5.4208,5.4224,5.4244,5.4295,5.4331,5.4373,5.4396,5.4393,5.4419,5.4396,5.4458,5.4398,5.448,5.4428,5.445,5.4454,5.4458,5.446,5.4392,5.449,5.4667,5.4683,5.4465,5.4463,5.4461,0,5.4181,5.4256,5.4331,5.4346,5.4369,5.4404,5.4415,5.4434,5.446,5.4493,5.4508,5.4548,5.4569,5.4599,5.4586,5.4544,5.467,5.4609,5.4666,5.4667,5.4692,5.469,5.4871,5.4713,5.4713,5.4713,5.4712,0,5.4329,5.4398,5.4384,5.4429,5.4503,5.4485,5.4559,5.4565,5.4582,5.4626,5.4595,5.4637,5.4619,5.466,5.4651,5.4718,5.4729,5.4726,5.4722,5.4727,5.4726,5.4738,5.4728,5.4717,5.4716,5.4715,5.4715,0,5.4474,5.4468,5.4545,5.4559,5.4564,5.4618,5.4628,5.467,5.4668,5.4724,5.4736,5.4733,5.4779,5.477,5.4821,5.4814,5.4897,5.4886,5.4889,5.4884,5.494,5.4933,5.5132,5.5155,5.4986,5.4988,5.499,0,5.4567,5.4618,5.4636,5.4663,5.4676,5.4721,5.4746,5.473,5.4757,5.4785,5.4823,5.4865,5.4898,5.4972,5.4973,5.5011,5.4997,5.5064,5.5002,5.5004,5.4992,5.4988,5.499,5.5075,5.5077,5.5079,5.508,0,5.4731,5.4725,5.4763,5.4799,5.4829,5.4857,5.4882,5.4906,5.4891,5.4923,5.4969,5.4994,5.5044,5.5085,5.5119,5.5129,5.5101,5.51,5.5114,5.5117,5.5115,5.5112,5.4917,5.5094,5.5093,5.5092,5.5091,5.509,5.485,5.4891,5.4909,5.4951,5.4967,5.499,5.5028,5.503,5.5068,5.5107,5.5095,5.5146,5.5164,5.5206,5.522,5.5258,5.5232,5.5255,5.5259,5.5264,5.5268,5.5112,5.5265,5.5264,5.5264,5.5264,5.5263,0,5.5008,5.5017,5.5056,5.509,5.5122,5.5094,5.5118,5.5147,5.5191,5.5211,5.5243,5.5293,5.5332,5.5336,5.5372,5.5401,5.5389,5.5411,5.5406,5.5408,5.5291,5.5273,5.542,5.542,5.542,5.542,5.542,5.542,5.5094,5.516,5.5156,5.5229,5.5238,5.5286,5.5302,5.5322,5.5336,5.5393,5.5425,5.5427,5.544,5.5476,5.5509,5.5509,5.5522,5.5548,5.5543,5.5433,5.5417,5.5402,5.5384,5.5552,5.5552,5.5655,5.5656,5.5657]},{"header":{"parameterUnit":"m.s-1","parameterCategory":1,"la1":30.2991,"la2":30.254,"lo1":-89.0895,"lo2":-89.0444,"dy":0.0017,"dx":0.0017,"nx":28,"ny":28,"refTime":"2023-08-08T21:00:00:Z","depth":0,"parameterNumber":3,"parameterNumberName":"V-component_of_WINDS"},"data":[0,0,0,0,0,0,0,0,0,0,0,0,0,0,0,0,0,0,0,0,0,0,0,0,0,0,0,0,0,0,0,0,0,0,0,0,0,0,0,0,0,0,0,0,0,0,0,0,0,0,0,0,0,0,0,0,0,0,5.6719,5.6721,0,5.6865,5.6866,5.6868,5.6847,5.6845,5.6842,5.684,5.6985,5.6991,5.6997,0,0,0,0,0,0,0,0,0,0,0,0,0,5.6417,5.6423,5.6719,5.6721,5.6723,5.6865,5.6867,5.6868,5.6848,5.6845,5.6842,5.6839,5.6983,5.6991,5.6998,0,0,0,0,0,0,0,0,0,0,0,0,0,5.6554,5.6425,5.6719,5.6729,5.6732,5.6864,5.6867,5.6869,5.6848,5.6845,5.6841,5.6838,5.6981,5.699,5.6999,5.7129,0,0,5.7027,5.7031,0,0,0,0,0,0,0,0,5.6546,5.6565,5.6726,5.6729,5.6732,5.6834,5.6813,5.6956,5.6849,5.6804,5.684,5.6836,5.6938,5.695,5.6986,5.7136,5.7142,5.7028,5.7034,5.7038,5.704,0,0,0,0,0,0,0,5.6537,5.6559,5.6776,5.6728,5.6732,5.6725,5.6741,5.684,5.6889,5.6808,5.6806,5.6824,5.6939,5.6977,5.6989,5.7144,5.7028,5.7036,5.7042,5.7045,5.7405,5.7408,0,0,0,0,0,0,5.6525,5.6551,5.6772,5.6781,5.6628,5.6733,5.6751,5.6805,5.6888,5.6898,5.6827,5.6823,5.6963,5.6978,5.6994,5.715,5.7037,5.7046,5.7051,5.7401,5.7405,5.741,0,0,0,0,0,0,5.6519,5.6545,5.6766,5.6666,5.6693,5.6743,5.6804,5.681,5.6848,5.6903,5.6911,5.6857,5.6961,5.6981,5.7095,5.7154,5.705,5.7059,5.7396,5.7402,5.7408,5.7463,0,0,0,0,0,0,5.651,5.6543,5.6594,5.6667,5.6699,5.6867,5.6807,5.6815,5.6864,5.686,5.6934,5.6942,5.6959,5.7081,5.7104,5.7165,5.7066,5.7391,5.7399,5.7406,5.7456,5.747,5.7482,0,0,0,0,0,5.6499,5.6604,5.6597,5.6624,5.6764,5.687,5.6888,5.6907,5.6869,5.692,5.6955,5.694,5.7144,5.7093,5.7119,5.7183,5.7387,5.7396,5.7405,5.745,5.7468,5.7482,0,0,0,0,0,0,5.6536,5.6614,5.6607,5.6738,5.6798,5.6867,5.6932,5.6925,5.6995,5.6988,5.7006,5.7023,5.7138,5.7172,5.7114,5.7312,5.726,5.7275,5.7286,5.7303,5.7315,5.7305,5.7073,0,0,0,0,0,5.6559,5.6641,5.6703,5.6813,5.6843,5.6882,5.6929,5.6938,5.7,5.7025,5.7068,5.7128,5.7205,5.7256,5.733,5.7461,5.7475,5.7517,5.753,5.7541,5.7553,5.7622,5.7641,5.744,5.7439,5.7439,0,0,5.6609,5.6661,5.6711,5.6822,5.6869,5.6951,5.6904,5.6993,5.7053,5.7038,5.7149,5.7182,5.7249,5.7372,5.7428,5.7404,5.7612,5.7552,5.756,5.7567,5.7634,5.7653,5.767,5.7446,5.7445,5.7444,0,0,5.674,5.6788,5.6884,5.6932,5.7004,5.7029,5.7052,5.7122,5.7144,5.7255,5.7245,5.7315,5.7449,5.7497,5.7538,5.7685,5.7673,5.7708,5.7777,5.7844,5.786,5.7874,5.7925,5.7943,5.772,5.772,5.7721,0,5.6791,5.6916,5.6934,5.7024,5.7072,5.7062,5.7158,5.7203,5.7296,5.7328,5.73,5.7465,5.751,5.7642,5.7678,5.7713,5.7737,5.77,5.7856,5.7871,5.7884,5.7933,5.7952,5.7724,5.7724,5.7723,5.7723,0,5.6975,5.7061,5.7129,5.7219,5.7275,5.7367,5.7397,5.7451,5.7454,5.7481,5.7593,5.7646,5.773,5.7762,5.7766,5.7894,5.7877,5.7852,5.7801,5.7907,5.7953,5.7971,5.773,5.7728,5.7727,5.7726,0,0,5.7135,5.7232,5.7257,5.7296,5.7374,5.744,5.7531,5.7614,5.7658,5.7721,5.7796,5.7908,5.7886,5.7933,5.7942,5.8001,5.8111,5.7969,5.7971,5.7992,5.8253,5.8271,5.8292,5.8104,5.8107,5.811,5.8247,0,5.7272,5.7434,5.7452,5.7595,5.7674,5.7665,5.7743,5.7798,5.7825,5.7894,5.7923,5.8002,5.7966,5.7995,5.8053,5.8086,5.8164,5.8076,5.8172,5.8175,5.8155,5.8317,5.8336,5.8463,5.8265,5.8269,5.8271,0,5.7455,5.7524,5.7676,5.774,5.7774,5.7845,5.792,5.7987,5.8048,5.8063,5.8115,5.8116,5.8207,5.8151,5.8276,5.8215,5.8255,5.8277,5.8282,5.8292,5.8229,5.8329,5.8504,5.8523,5.8299,5.8297,5.8295,0,5.7555,5.7685,5.7792,5.7827,5.7905,5.7955,5.7989,5.8047,5.8095,5.816,5.8191,5.8266,5.8307,5.8364,5.8384,5.8343,5.8507,5.8454,5.8521,5.852,5.8556,5.8553,5.8739,5.8583,5.8582,5.8582,5.8582,0,5.7707,5.7799,5.7838,5.7904,5.8006,5.8024,5.8125,5.8157,5.8208,5.8278,5.8274,5.834,5.8362,5.8431,5.8447,5.8546,5.8565,5.8578,5.8581,5.8579,5.8577,5.8605,5.8596,5.8587,5.8586,5.8585,5.8584,0,5.7836,5.7865,5.7981,5.8046,5.8064,5.8136,5.8191,5.8253,5.8278,5.8367,5.8389,5.8428,5.8508,5.8534,5.8631,5.8641,5.8757,5.8753,5.8737,5.8737,5.8802,5.8795,5.9012,5.904,5.8866,5.8868,5.8869,0,5.793,5.8002,5.8073,5.8121,5.8157,5.8234,5.8282,5.8302,5.8352,5.8426,5.8479,5.8558,5.8623,5.8752,5.8788,5.8861,5.8858,5.8929,5.8869,5.8863,5.8858,5.8853,5.8859,5.894,5.8942,5.8943,5.8944,0,5.8095,5.8105,5.8177,5.8252,5.8311,5.8371,5.8429,5.8467,5.8495,5.8551,5.8634,5.8684,5.8783,5.8861,5.8936,5.8969,5.8961,5.8963,5.8982,5.898,5.8967,5.8973,5.8767,5.8958,5.8956,5.8955,5.8955,5.8954,5.8209,5.8271,5.8331,5.8409,5.8455,5.8509,5.857,5.8603,5.8672,5.8755,5.8761,5.885,5.8906,5.9005,5.9043,5.9111,5.909,5.9118,5.9125,5.9132,5.9136,5.8956,5.9124,5.9124,5.9124,5.9123,5.9123,0,5.8372,5.841,5.8482,5.8563,5.8624,5.8612,5.8675,5.8726,5.8805,5.8858,5.8922,5.9016,5.9091,5.9133,5.9207,5.9254,5.9252,5.9273,5.9269,5.9277,5.9151,5.9127,5.9273,5.9273,5.9273,5.9273,5.9273,5.9273,5.8464,5.8568,5.8585,5.871,5.8746,5.8834,5.8871,5.892,5.8963,5.9068,5.9131,5.9157,5.9206,5.9283,5.9351,5.9361,5.9388,5.9412,5.9419,5.9301,5.9286,5.9271,5.9248,5.9418,5.9418,5.9539,5.954,5.9541]}]]